Location: Tamazert
(32.6352°N, 5.2072°W)
Time: 04:47:16
(UTC+00:00)

Vanguard 1 Rocket - Pass Details

Date: 13 October 2022
Orbit: 650 x 4225 km, 34.3° (Epoch: 05 December)

Event Time Altitude Azimuth Distance (km) Brightness Sun altitude
Rises 13:37:43 0° 201° (SSW) 7,021 12.7 44.1°
Reaches altitude 10° 13:42:46 10° 192° (SSW) 6,433 12.7 43.5°
Maximum altitude 14:02:07 35° 134° (SE) 5,535 11.8 41.1°
Drops below altitude 10° 14:23:01 10° 80° (E) 7,053 11.6 38.1°
Sets 14:28:43 0° 72° (ENE) 7,757 11.7 37.3°
